Location: Bishopstone
(51.0167°N, 1.9000°W)
Time: 03:51:15
(UTC+00:00)

SPOT 5 - Pass Details

Date: 16 September 2019
Orbit: 624 x 814 km, 98.3° (Epoch: 20 October)

Event Time Altitude Azimuth Distance (km) Brightness Sun altitude
Exits shadow 21:11:45 49° 46° (NE) 917 3.3 -25.4°
Drops below altitude 10° 21:16:03 10° 353° (N) 2,257 6.0 -25.9°
Sets 21:18:27 0° 349° (N) 3,215 7.0 -26.1°
